Torna al catalogo

ARIANE 44P R/B

AttivoHEO
NORAD 25461·ROCKET BODY·🇫🇷 France

Lanciato Aug 25, 1998 da Guiana Space Centre

Loading…

Prossimi Passaggi (prossime 24 ore)

TLE

AggiornatoSource: Space-Track

Epoca: Sep 14, 2026, 08:31 UTC

1 25461U 98049B   26257.35488339  .00008134  00000-0  13707-2 0  9999
2 25461   4.0543 237.4998 5865612 258.6920  33.5426  4.25101383308318

Traccia ARIANE 44P R/B in tempo reale con AllMySat

Download on the App Store